Radiation Dose at Monitoring Post of Fukushima Daini Nuclear Power Station
Date,Time,MP-1(microSv/h),MP-2(microSv/h),MP-3(microSv/h),MP-4(microSv/h),MP-5(microSv/h),MP-6(microSv/h),MP-7(microSv/h),Wind Direction,Wind Velocity(m/s),Rain
2019/04/12,00:00,0.200,0.183,0.303,0.281,0.272,0.150,0.092,west-southwest,1.5,No
2019/04/12,00:10,0.201,0.183,0.303,0.281,0.271,0.152,0.092,west-northwest,2.0,No
2019/04/12,00:20,0.200,0.182,0.302,0.281,0.271,0.151,0.093,west-northwest,2.2,No
2019/04/12,00:30,0.199,0.183,0.302,0.280,0.271,0.150,0.093,west,2.8,No
2019/04/12,00:40,0.201,0.182,0.302,0.283,0.272,0.150,0.093,west,2.9,No
2019/04/12,00:50,0.198,0.184,0.303,0.280,0.271,0.151,0.092,west-northwest,3.4,No
2019/04/12,01:00,0.199,0.184,0.301,0.281,0.271,0.150,0.091,west-northwest,3.3,No
2019/04/12,01:10,0.199,0.183,0.302,0.280,0.272,0.150,0.092,west-northwest,4.1,No
2019/04/12,01:20,0.198,0.183,0.303,0.280,0.272,0.151,0.092,west-northwest,2.7,No
2019/04/12,01:30,0.199,0.183,0.302,0.281,0.271,0.150,0.092,northwest,2.1,No
2019/04/12,01:40,0.200,0.184,0.303,0.282,0.270,0.150,0.092,northwest,2.9,No
2019/04/12,01:50,0.200,0.183,0.302,0.282,0.270,0.150,0.092,northwest,4.2,No
2019/04/12,02:00,0.199,0.183,0.301,0.281,0.269,0.151,0.091,northwest,4.9,No
2019/04/12,02:10,0.199,0.183,0.301,0.280,0.271,0.151,0.092,northwest,4.9,No
2019/04/12,02:20,0.200,0.183,0.303,0.280,0.270,0.151,0.091,northwest,5.6,No
2019/04/12,02:30,0.199,0.184,0.301,0.280,0.271,0.150,0.091,northwest,7.1,No
2019/04/12,02:40,0.200,0.182,0.303,0.281,0.271,0.151,0.092,northwest,6.5,No
2019/04/12,02:50,0.199,0.183,0.301,0.279,0.271,0.151,0.092,northwest,7.4,No
2019/04/12,03:00,0.200,0.182,0.301,0.279,0.270,0.151,0.091,northwest,7.0,No
2019/04/12,03:10,0.199,0.183,0.303,0.281,0.270,0.151,0.091,northwest,5.9,No
2019/04/12,03:20,0.199,0.183,0.302,0.280,0.271,0.150,0.091,northwest,4.4,No
2019/04/12,03:30,0.200,0.182,0.302,0.280,0.272,0.150,0.092,west-northwest,3.7,No
2019/04/12,03:40,0.200,0.182,0.301,0.281,0.272,0.150,0.092,west-northwest,2.8,No
2019/04/12,03:50,0.199,0.182,0.300,0.281,0.269,0.151,0.092,west-northwest,2.9,No
2019/04/12,04:00,0.199,0.184,0.301,0.281,0.271,0.150,0.091,west-northwest,1.8,No
2019/04/12,04:10,0.199,0.182,0.302,0.282,0.271,0.149,0.092,northwest,1.1,No
2019/04/12,04:20,0.199,0.183,0.301,0.280,0.272,0.150,0.092,southeast,0.6,No
2019/04/12,04:30,0.198,0.183,0.302,0.281,0.270,0.150,0.091,southeast,0.6,No
2019/04/12,04:40,0.199,0.182,0.300,0.280,0.271,0.151,0.092,south-southeast,0.8,No
2019/04/12,04:50,0.200,0.184,0.303,0.280,0.271,0.150,0.091,west-southwest,1.5,No
2019/04/12,05:00,0.199,0.183,0.302,0.281,0.270,0.150,0.091,west-northwest,1.9,No
2019/04/12,05:10,0.198,0.183,0.301,0.281,0.270,0.151,0.091,northwest,1.7,No
2019/04/12,05:20,0.199,0.182,0.301,0.281,0.270,0.151,0.092,west-northwest,1.6,No
2019/04/12,05:30,0.200,0.183,0.301,0.280,0.271,0.151,0.092,northwest,0.8,No
2019/04/12,05:40,0.199,0.183,0.302,0.281,0.273,0.151,0.092,-,CALM,No
2019/04/12,05:50,0.199,0.184,0.303,0.281,0.270,0.150,0.092,south-southeast,0.8,No
2019/04/12,06:00,0.199,0.182,0.302,0.281,0.270,0.151,0.091,-,CALM,No
2019/04/12,06:10,0.200,0.183,0.302,0.281,0.272,0.151,0.092,east-southeast,1.4,No
2019/04/12,06:20,0.199,0.182,0.301,0.281,0.271,0.150,0.091,east-southeast,1.7,No
2019/04/12,06:30,0.199,0.183,0.301,0.281,0.271,0.150,0.092,southeast,2.6,No
2019/04/12,06:40,0.199,0.183,0.302,0.281,0.270,0.151,0.091,southeast,2.8,No
2019/04/12,06:50,0.199,0.183,0.302,0.279,0.271,0.151,0.092,southeast,3.0,No
2019/04/12,07:00,0.199,0.183,0.302,0.280,0.270,0.149,0.091,east-southeast,2.8,No
2019/04/12,07:10,0.200,0.184,0.301,0.280,0.270,0.150,0.091,southeast,2.4,No
2019/04/12,07:20,0.200,0.184,0.303,0.282,0.272,0.151,0.091,south-southeast,1.9,No
2019/04/12,07:30,0.199,0.183,0.298,0.281,0.272,0.150,0.091,south-southeast,1.5,No
2019/04/12,07:40,0.200,0.183,0.301,0.280,0.270,0.151,0.092,south-southeast,2.1,No
2019/04/12,07:50,0.199,0.183,0.302,0.280,0.271,0.150,0.091,south-southeast,2.3,No
2019/04/12,08:00,0.199,0.182,0.301,0.281,0.271,0.150,0.091,south-southeast,1.4,No
2019/04/12,08:10,0.200,0.183,0.300,0.280,0.270,0.150,0.092,southeast,0.9,No
2019/04/12,08:20,0.200,0.182,0.302,0.282,0.272,0.150,0.091,-,CALM,No
2019/04/12,08:30,0.199,0.183,0.301,0.279,0.269,0.150,0.092,south,1.0,No
2019/04/12,08:40,0.199,0.182,0.301,0.281,0.272,0.151,0.092,southeast,1.4,No
2019/04/12,08:50,0.198,0.183,0.303,0.279,0.271,0.151,0.092,east-southeast,2.1,No
2019/04/12,09:00,0.199,0.182,0.302,0.280,0.272,0.150,0.091,southeast,2.6,No
2019/04/12,09:10,0.199,0.183,0.301,0.281,0.272,0.150,0.092,southeast,2.3,No
2019/04/12,09:20,0.199,0.184,0.303,0.280,0.271,0.149,0.092,southeast,2.8,No
2019/04/12,09:30,0.200,0.182,0.301,0.280,0.274,0.151,0.092,south-southeast,3.0,No
2019/04/12,09:40,0.199,0.183,0.301,0.280,0.271,0.150,0.092,southeast,2.6,No
2019/04/12,09:50,0.198,0.183,0.303,0.282,0.273,0.150,0.092,south-southeast,2.7,No
2019/04/12,10:00,0.197,0.184,0.301,0.279,0.272,0.151,0.092,southeast,3.4,No
2019/04/12,10:10,0.200,0.184,0.303,0.281,0.272,0.150,0.092,southeast,3.7,No
2019/04/12,10:20,0.198,0.184,0.302,0.280,0.272,0.152,0.092,southeast,3.2,No
2019/04/12,10:30,0.202,0.183,0.301,0.282,0.274,0.151,0.092,southeast,3.3,No
2019/04/12,10:40,0.197,0.182,0.301,0.280,0.272,0.151,0.092,southeast,3.3,No
2019/04/12,10:50,0.199,0.183,0.301,0.282,0.273,0.150,0.092,east-southeast,2.8,No
2019/04/12,11:00,0.198,0.183,0.302,0.280,0.272,0.152,0.093,east-southeast,2.2,No
2019/04/12,11:10,0.199,0.184,0.299,0.281,0.272,0.151,0.091,east,2.4,No
2019/04/12,11:20,0.199,0.183,0.303,0.280,0.271,0.151,0.092,east-southeast,2.2,No
2019/04/12,11:30,0.200,0.183,0.298,0.282,0.273,0.150,0.092,southeast,2.7,No
2019/04/12,11:40,0.199,0.184,0.302,0.280,0.270,0.150,0.092,east-southeast,2.9,No
2019/04/12,11:50,0.200,0.182,0.300,0.281,0.272,0.149,0.092,east-southeast,2.9,No
2019/04/12,12:00,0.199,0.183,0.301,0.280,0.271,0.150,0.092,east-southeast,2.6,No
2019/04/12,12:10,0.199,0.183,0.301,0.283,0.275,0.150,0.091,south-southeast,2.4,No
2019/04/12,12:20,0.199,0.184,0.303,0.281,0.271,0.151,0.092,southeast,2.7,No
2019/04/12,12:30,0.199,0.183,0.300,0.283,0.273,0.151,0.091,south-southeast,2.5,No
2019/04/12,12:40,0.198,0.183,0.303,0.283,0.271,0.152,0.092,south-southeast,2.1,No
2019/04/12,12:50,0.200,0.183,0.302,0.283,0.274,0.151,0.092,southeast,2.8,No
2019/04/12,13:00,0.200,0.184,0.304,0.282,0.273,0.151,0.092,south-southeast,2.5,No
2019/04/12,13:10,0.200,0.184,0.303,0.280,0.274,0.152,0.091,south-southeast,2.1,No
2019/04/12,13:20,0.199,0.182,0.304,0.282,0.272,0.151,0.091,south-southeast,3.3,No
2019/04/12,13:30,0.200,0.184,0.304,0.282,0.275,0.152,0.092,south-southeast,3.0,No
2019/04/12,13:40,0.201,0.183,0.303,0.282,0.273,0.151,0.092,south-southeast,3.3,No
2019/04/12,13:50,0.201,0.183,0.303,0.281,0.274,0.152,0.092,south-southeast,2.8,No
2019/04/12,14:00,0.199,0.183,0.302,0.282,0.272,0.152,0.092,south-southeast,3.4,No
2019/04/12,14:10,0.200,0.182,0.302,0.283,0.273,0.152,0.092,south,3.8,No
2019/04/12,14:20,0.199,0.184,0.303,0.281,0.273,0.152,0.092,south-southeast,3.9,No
2019/04/12,14:30,0.200,0.183,0.302,0.283,0.273,0.151,0.092,south-southeast,3.2,No
2019/04/12,14:40,0.201,0.183,0.303,0.282,0.275,0.152,0.092,south-southeast,2.9,No
2019/04/12,14:50,0.199,0.183,0.302,0.282,0.272,0.153,0.092,south-southeast,3.1,No
2019/04/12,15:00,0.201,0.183,0.302,0.284,0.273,0.150,0.092,south-southeast,3.2,No
2019/04/12,15:10,0.200,0.185,0.303,0.281,0.272,0.152,0.092,south-southeast,2.9,No
2019/04/12,15:20,0.200,0.183,0.302,0.282,0.274,0.150,0.092,south-southeast,3.0,No
2019/04/12,15:30,0.200,0.183,0.303,0.282,0.272,0.151,0.092,south-southeast,3.4,No
2019/04/12,15:40,0.200,0.184,0.301,0.282,0.274,0.150,0.091,southeast,3.3,No
2019/04/12,15:50,0.200,0.183,0.302,0.284,0.274,0.152,0.092,southeast,3.0,No
2019/04/12,16:00,0.199,0.184,0.302,0.281,0.273,0.151,0.092,southeast,2.9,No
2019/04/12,16:10,0.200,0.184,0.303,0.282,0.273,0.151,0.092,southeast,2.7,No
2019/04/12,16:20,0.199,0.184,0.303,0.282,0.272,0.152,0.092,south-southeast,2.7,No
2019/04/12,16:30,0.200,0.184,0.303,0.281,0.274,0.150,0.092,south-southeast,2.4,No
2019/04/12,16:40,0.200,0.184,0.303,0.282,0.273,0.152,0.092,southeast,2.9,No
2019/04/12,16:50,0.199,0.183,0.304,0.284,0.273,0.152,0.092,south-southeast,3.1,No
2019/04/12,17:00,0.201,0.184,0.301,0.282,0.274,0.152,0.092,south-southeast,2.9,No
2019/04/12,17:10,0.199,0.185,0.302,0.283,0.273,0.152,0.092,south-southeast,2.5,No
2019/04/12,17:20,0.199,0.184,0.304,0.282,0.274,0.152,0.093,south-southeast,3.1,No
2019/04/12,17:30,0.200,0.184,0.303,0.282,0.273,0.151,0.092,south,2.9,No
2019/04/12,17:40,0.199,0.184,0.302,0.284,0.275,0.152,0.092,south,2.6,No
2019/04/12,17:50,0.200,0.183,0.302,0.283,0.274,0.152,0.092,south,2.2,No
2019/04/12,18:00,0.201,0.184,0.302,0.282,0.273,0.151,0.091,south,2.6,No
2019/04/12,18:10,0.199,0.184,0.303,0.283,0.274,0.152,0.091,south-southwest,3.7,No
2019/04/12,18:20,0.200,0.184,0.304,0.284,0.273,0.152,0.092,south-southwest,3.7,No
2019/04/12,18:30,0.200,0.184,0.303,0.282,0.272,0.151,0.092,south-southwest,4.5,No
2019/04/12,18:40,0.200,0.185,0.302,0.283,0.274,0.151,0.092,south-southwest,4.5,No
2019/04/12,18:50,0.200,0.184,0.303,0.284,0.274,0.151,0.092,south-southwest,4.2,No
2019/04/12,19:00,0.201,0.183,0.303,0.284,0.273,0.152,0.092,south-southwest,4.1,No
2019/04/12,19:10,0.200,0.183,0.303,0.283,0.274,0.152,0.092,south-southwest,4.0,No
2019/04/12,19:20,0.201,0.184,0.303,0.283,0.273,0.152,0.093,southwest,3.9,No
2019/04/12,19:30,0.201,0.184,0.306,0.284,0.273,0.151,0.092,south-southwest,3.6,No
2019/04/12,19:40,0.201,0.185,0.304,0.283,0.272,0.152,0.093,south-southwest,3.0,No
2019/04/12,19:50,0.201,0.184,0.304,0.284,0.274,0.152,0.092,southwest,1.4,No
2019/04/12,20:00,0.200,0.183,0.303,0.284,0.274,0.152,0.092,west-southwest,1.9,No
2019/04/12,20:10,0.200,0.184,0.304,0.284,0.273,0.151,0.093,west-southwest,2.0,No
2019/04/12,20:20,0.202,0.184,0.304,0.284,0.273,0.152,0.093,west,2.3,No
2019/04/12,20:30,0.201,0.184,0.302,0.283,0.273,0.152,0.093,west-southwest,1.9,No
2019/04/12,20:40,0.199,0.185,0.304,0.282,0.273,0.152,0.093,west,2.0,No
2019/04/12,20:50,0.201,0.184,0.304,0.284,0.273,0.152,0.092,west,3.1,No
2019/04/12,21:00,0.201,0.185,0.303,0.284,0.273,0.152,0.093,west,4.2,No
2019/04/12,21:10,0.200,0.185,0.304,0.282,0.273,0.152,0.092,west-northwest,3.7,No
2019/04/12,21:20,0.201,0.185,0.304,0.285,0.273,0.152,0.093,northwest,2.1,No
2019/04/12,21:30,0.201,0.184,0.302,0.283,0.273,0.153,0.093,west-northwest,1.2,No
2019/04/12,21:40,0.200,0.184,0.303,0.284,0.273,0.152,0.093,northwest,1.3,No
2019/04/12,21:50,0.201,0.184,0.303,0.284,0.273,0.151,0.093,northwest,1.9,No
2019/04/12,22:00,0.201,0.184,0.304,0.284,0.273,0.152,0.093,west-northwest,3.0,No
2019/04/12,22:10,0.201,0.185,0.304,0.284,0.273,0.152,0.093,northwest,4.0,No
2019/04/12,22:20,0.200,0.183,0.303,0.284,0.273,0.152,0.092,northwest,4.6,No
2019/04/12,22:30,0.201,0.185,0.304,0.283,0.273,0.152,0.092,northwest,4.2,No
2019/04/12,22:40,0.201,0.184,0.303,0.284,0.273,0.152,0.093,west-northwest,4.9,No
2019/04/12,22:50,0.201,0.184,0.304,0.284,0.274,0.152,0.092,west-northwest,6.6,No
2019/04/12,23:00,0.200,0.185,0.303,0.283,0.272,0.152,0.092,west-northwest,6.5,No
2019/04/12,23:10,0.201,0.185,0.305,0.284,0.273,0.151,0.093,west-northwest,6.2,No
2019/04/12,23:20,0.201,0.184,0.305,0.283,0.272,0.151,0.093,west-northwest,4.8,No
2019/04/12,23:30,0.201,0.184,0.305,0.284,0.274,0.152,0.093,west-northwest,5.1,No
2019/04/12,23:40,0.201,0.184,0.304,0.283,0.273,0.152,0.092,northwest,5.4,No
2019/04/12,23:50,0.201,0.185,0.303,0.283,0.273,0.151,0.091,west-northwest,5.7,No
